Starlink 31083

operational
NORAD ID: 58670 Int'l Des: 2023-211 Owner: SPXS Country: US Constellation: starlink
LEOCIRCULAR

About Starlink 31083

Description loading...

Live Position

Loading 3D Globe...

Upcoming Passes

Altitude History

Altitude vs Time

uPlot chart will show altitude changes over time

Two-Line Element Set

1 58670U 23211D 25353.81975376 .00000646 00000-0 33003-4 0 9998
2 58670 43.0007 175.9918 0001169 267.0628 93.0090 15.27574219110253
Epoch: Dec 19, 2025 • Age: 21 hours

Current Status

Altitude 482.9 km
Velocity 7.63 km/s
Sub-Earth Point 20.72°N, 137.7°W
Launch Date Dec 29, 2023
Age 1.9 years
Type internet

Technical Details

Classification Payload
Mass 730.00 kg
Dry Mass 700.00 kg
Total Mass 730.00 kg
Length 0.30 m
Diameter 4.10 m
Span 29.00 m
Shape Box + pan
Manufacturer SPXS
Bus Type Starlink V2M
Phase Status In Orbit
Owner/State SPXS/US

Large Constellations

Loading constellations...